Luxor, Egypt

2:10 PM EET on February 23, 2017 (GMT +0200)
Luxor

Weather History for HELX - November, 2012

Change the Weather History Date:

Thursday, November 29, 2012

  Actual Average Record
Temperature  
Mean Temperature 67 °F -  
Max Temperature 83 °F 72 °F 89 °F (2005)
Min Temperature 51 °F 46 °F 44 °F (2004)
Cooling Degree Days 2    
Growing Degree Days 17 (Base 50)    
Moisture  
Dew Point 47 °F    
Average Humidity 48    
Maximum Humidity 71    
Minimum Humidity 26    
Precipitation  
Precipitation 0.00 in 0.00 in - ()
Sea Level Pressure  
Sea Level Pressure 30.01 in    
Wind  
Wind Speed 1 mph ()    
Max Wind Speed 4 mph    
Max Gust Speed -    
Visibility 6.0 miles    
Events      
Averages and records for this station are not official NWS values.
T = Trace of Precipitation, MM = Missing Value Source: Averaged Metar Reports

Daily Weather History Graph

Daily Weather History Graph

Search for Another Location

Airport or City:

Trip Planner

Search our weather history database for the weather conditions in past years. The results will help you decide how hot, cold, wet, or windy it might be!

Date:

Astronomy

Nov. 29, 2012 Rise Set
Actual Time 6:17 AM EET 4:57 PM EET
Civil Twilight 5:52 AM EET 5:22 PM EET
Nautical Twilight 5:24 AM EET 5:50 PM EET
Astronomical Twilight 4:56 AM EET 6:18 PM EET
Moon 5:44 PM EET (11/29) 6:47 AM EET (11/29)
Length of Visible Light 11h 30m
Length of Day
10h 40m
Waxing Gibbous, 99% of the Moon is Illuminated
Nov 29
Waxing Gibbous
Dec 6
Last Quarter
Dec 13
New
Dec 20
First Quarter
Dec 28
Full

Hourly Weather History & Observations

Time (EET) Temp. Dew Point Humidity Pressure Visibility Wind Dir Wind Speed Gust Speed Precip Events Conditions
12:00 AM 64.4 °F 46.4 °F 52% 30.01 in - Calm Calm - N/A   Clear
1:00 AM 60.8 °F 46.4 °F 59% 30.01 in - South 2.3 mph - N/A   Clear
2:00 AM 61 °F 44 °F 43% 30.00 in 6 mi Calm Calm - -  
2:00 AM 60.8 °F 44.6 °F 55% 29.98 in - Calm Calm - N/A   Clear
3:00 AM 59.0 °F 44.6 °F 59% 29.98 in - SSE 3.5 mph - N/A   Clear
4:00 AM 57.2 °F 44.6 °F 63% 29.98 in - Calm Calm - N/A   Clear
5:00 AM 57.2 °F 42.8 °F 59% 30.01 in - Calm Calm - N/A   Clear
6:00 AM 53.6 °F 42.8 °F 67% 30.01 in - Calm Calm - N/A   Clear
7:00 AM 51.8 °F 42.8 °F 71% 30.04 in - Calm Calm - N/A   Clear
8:00 AM 60 °F 46 °F 48% 30.06 in 6 mi Calm Calm - -  
8:00 AM 60.8 °F 46.4 °F 59% 30.04 in - Calm Calm - N/A   Clear
9:00 AM 64.4 °F 51.8 °F 64% 30.06 in - NE 3.5 mph - N/A   Clear
10:00 AM 69.8 °F 51.8 °F 53% 30.06 in - Calm Calm - N/A   Clear
11:00 AM 73.4 °F 51.8 °F 47% 30.06 in - Calm Calm - N/A   Clear
12:00 PM 77.0 °F 55.4 °F 47% 30.04 in - WNW 2.3 mph - N/A   Clear
1:00 PM 80.6 °F 51.8 °F 37% 30.01 in - Calm Calm - N/A   Clear
2:00 PM 81 °F 52 °F 26% 29.98 in 6 mi Calm Calm - -  
2:00 PM 80.6 °F 51.8 °F 37% 29.98 in - Calm Calm - N/A   Clear
3:00 PM 82.4 °F 48.2 °F 30% 29.98 in - WNW 2.3 mph - N/A   Clear
4:00 PM 82.4 °F 46.4 °F 28% 29.95 in - NW 2.3 mph - N/A   Clear
5:00 PM 77.0 °F 50.0 °F 39% 29.98 in - Calm Calm - N/A   Clear
7:00 PM 69.8 °F 50.0 °F 49% 29.98 in - Calm Calm - N/A   Clear
8:00 PM 70 °F 46 °F 30% 29.99 in 6 mi SSE 2.3 mph - -   Partly Cloudy
8:00 PM 69.8 °F 46.4 °F 43% 29.98 in - SSE 2.3 mph - N/A   Clear
9:00 PM 68.0 °F 44.6 °F 43% 30.01 in - Calm Calm - N/A   Clear
10:00 PM 66.2 °F 42.8 °F 43% 30.01 in - Calm Calm - N/A   Clear
11:00 PM 62.6 °F 42.8 °F 48% 30.01 in - Calm Calm - N/A   Clear